COSMOS 1275 DEB, 42187

Orbit data source: Space-Track

COSMOS 1275 DEB, 42187 is space debris in LEO originally from a launch on Thu, 04 Jun 1981 UTC launched from the Plesetsk Missile And Space Complex (PKMTR). Debris objects in space refer to the collection of defunct objects orbiting the Earth. Examples of debris include non-operational satellites, rocket bodies, and fragments generated from explosions, collisions, or faulty payload assembly.

Loading next visibility...
Identifier
42187, 1981-053TB
Orbit
LEO
Country
Flag of CISCIS
Related business
Manufacturer
Unknown
Mission
Spacecraft
Bus & Motor
Unknown
Mass
Unknown
Launch date (UTC)
1981-06-04 (45 years ago)
Launch vehicle
Unknown
Launch site
Plesetsk Missile And Space Complex (PKMTR)
Object type
Payload
Rocket body
Debris
Shape & HBR
Unknown shape, 0.1 m
Radar Cross Section
Small (<0.1 m²)

Expand to show TLE details & history
Last TLE update: 3 months ago

TLE from 3 months ago
0 COSMOS 1275 DEB
1 42187U 81053TB  25265.60969986  .00003698  00000-0  23028-2 0  9995
2 42187  82.9683   8.5002 0058652  66.9270 293.8071 14.03799455602411
Epoch: 2025-09-22T14:37Z
TLE epoch observation values (Epoch: 2025-09-22T14:37:58.067Z)
Latitude
-0.00003°
Longitude
147.29683°
Altitude
866.629 km
Speed
7.428 km/s
True Right ascension
00h 34m 00s
True Declination
0° 00' 00"
Sunlit
Object was in full shadow at epoch
Visualization orbit readout
Latitude
Unknown
Longitude
Unknown
Altitude
Unknown
Speed
Unknown
Apparent Right ascension
Unknown
Apparent Declination
Unknown
Sunlit
N/A
Visualization observer readout
Local Sidereal Time
08:36:37
Azimuth
Unknown
Elevation
Unknown
Doppler factor
Unknown
Orbital elements
Apogee altitude
920.333 km
Perigee altitude
835.218 km
Semi-major axis
7,255.913 km
Eccentricity
0.00587
Inclination
82.9683°
RAAN
8.5002°
Arg. of periapsis
66.927°
True anomaly
293.19037°
Mean anomaly
293.8071°
Eccentric anomaly
293.49892°
Mean motion
3.5116 °/min
Orbital period
102.52 mins
BSTAR
0.0023028
Loading maneuver chart data...
Computing Atmospheric mass density...

Documentation

Showing up to 5 results
|